Flag for Switzerland Weather past 2 weeks in Arbon, Thurgau, Switzerland

52 °F


Feels Like: 49 °F
Forecast: 48 / 51 °F
Wind: 8 mph from Southwest

Location: Saint Gallen-Altenrhein

Current Time: Nov 30, 2015 at 12:15:18 AM

Latest Report: Nov 29, 2015 at 11:20 PM

Visibility: N/A

Pressure: 30.27 "Hg

Humidity: 54%

Dew point: 36 °F

Location of ArbonLocation

Historic Weather in Arbon — Graph


Arbon temperature yesterday

Maximum temperature yesterday: 52 °F (at 9:20 PM)
Minimum temperature yesterday: 36 °F (at 2:50 AM)
Average temperature yesterday: 44 °F

Past Weeks' High & Low Weather Summary

High64 °F (Nov 19, 11:20 PM)100% (Nov 15, 1:50 AM)30.33 "Hg (Nov 15, 1:50 AM)
Low25 °F (Nov 24, 4:50 AM)41% (Nov 19, 1:50 AM)29.42 "Hg (Nov 21, 1:50 PM)
Average43 °F79%30.02 "Hg
* Reported Nov 14 10:20 PM — Nov 29 10:50 PM, Arbon, Weather by CustomWeather, © 2015

Note: Actual official high and low records may vary slightly from our data, if they occured in-between our weather recording intervals... More about our weather records


Arbon weather history for previous 24 hours

Time TempWeatherWind HumidityBarometerVisibility
10:50 PM
Sun, Nov 29
50 °FOvercast.6 mph62%30.27 "HgN/A
10:20 PM50 °FPartly cloudy.8 mph58%30.27 "HgN/A
9:50 PM52 °FMostly cloudy.3 mph54%30.27 "HgN/A
9:20 PM52 °FMostly cloudy.6 mph54%30.27 "HgN/A
8:50 PM50 °FOvercast.5 mph58%30.27 "HgN/A
8:20 PM50 °FLight rain. Passing clouds.2 mph62%30.27 "HgN/A
7:50 PM50 °FPassing clouds.8 mph58%30.27 "HgN/A
7:20 PM50 °FPassing clouds.6 mph58%30.27 "HgN/A
6:50 PM50 °FPassing clouds.12 mph58%30.24 "HgN/A
6:20 PM50 °FPassing clouds.12 mph62%30.24 "HgN/A
5:50 PM50 °FPassing clouds.13 mph62%30.24 "HgN/A
5:20 PM48 °FPassing clouds.8 mph66%30.24 "HgN/A
4:50 PM50 °FPassing clouds.14 mph62%30.24 "HgN/A
4:20 PM48 °FPartly sunny.12 mph66%30.21 "HgN/A
3:50 PM48 °FPartly sunny.14 mph66%30.21 "HgN/A
3:20 PM48 °FPartly sunny.15 mph66%30.21 "HgN/A
2:50 PM48 °FPartly sunny.10 mph62%30.18 "HgN/A
2:20 PM48 °FSprinkles. Partly sunny.14 mph62%30.21 "HgN/A
1:50 PM48 °FSprinkles. Partly sunny.5 mph66%30.21 "HgN/A
1:20 PM45 °FPartly sunny.5 mph76%30.18 "HgN/A
12:50 PM43 °FPartly sunny.6 mph71%30.18 "HgN/A
12:20 PM43 °FBroken clouds.5 mph71%30.21 "HgN/A
11:50 AM43 °FBroken clouds.2 mph76%30.21 "HgN/A
11:20 AM41 °FPartly sunny.5 mph70%30.21 "HgN/A
10:20 AM39 °FLight rain. Partly sunny.3 mph81%30.21 "HgN/A
9:50 AM39 °FPartly sunny.2 mph70%30.21 "HgN/A
9:20 AM39 °FOvercast.2 mph75%30.21 "HgN/A
8:50 AM41 °FOvercast.2 mph57%30.21 "HgN/A
8:20 AM39 °FOvercast.2 mph61%30.21 "HgN/A
7:50 AM41 °FOvercast.5 mph57%30.18 "HgN/A
7:20 AM41 °FOvercast.3 mph53%30.18 "HgN/A
6:50 AM41 °FPassing clouds.8 mph57%30.21 "HgN/A
6:20 AM39 °FOvercast.6 mph61%30.21 "HgN/A
5:20 AM37 °FClear.5 mph70%30.21 "HgN/A
4:50 AM39 °FOvercast.3 mph65%30.21 "HgN/A
4:20 AM37 °FPassing clouds.5 mph75%30.18 "HgN/A
3:50 AM37 °FPassing clouds.6 mph75%30.18 "HgN/A
3:20 AM37 °FPassing clouds.6 mph70%30.21 "HgN/A
2:50 AM36 °FPassing clouds.3 mph75%30.21 "HgN/A
2:20 AM37 °FClear.5 mph65%30.21 "HgN/A
1:50 AM39 °FPartly cloudy.7 mph61%30.21 "HgN/A
12:50 AM39 °FPassing clouds.8 mph61%30.24 "HgN/A
12:20 AM37 °FPassing clouds.5 mph65%30.24 "HgN/A
Weather by CustomWeather, © 2015

See weather overviewHow to use our weather pages